Showing default

CHEOPS, 44874

Orbit data source: Space-Track

CHEOPS, 44874 is a payload satellite owned by ESA (ESA) in SSO that was launched on Wed, 18 Dec 2019 UTC via a SOYUZ-ST-A launch vehicle from the French Guiana (FRGUI). Payload-class satellites include a variety of spacecraft equipped with specific instruments for various scientific and technological missions. These include communications satellites like Starlink; space stations such as the ISS; scientific satellites like the Hubble; Earth observation satellites from companies like Planet Labs, Umbra, and HawkEye 360; GPS; miniature CubeSats for education and research; and military/defense satellites.

Loading next visibility...
Identifier
44874, 2019-092B
Orbit
SSO
Country
Flag of ESAESA
Related business
Manufacturer
Airbus Barajas
Mission
Operational Civil Astronomy
Bus & Motor
SEOSAT, AOCS
Mass
273 kg wet, 273 kg dry
Launch date (UTC)
2019-12-18 (6 years ago)
Launch vehicle
SOYUZ-ST-A
Launch site
French Guiana (FRGUI)
Object type
Payload
Rocket body
Debris
Shape & HBR
Hex Cyl + 1 Pan, 1.2 m
Radar Cross Section
2.624 m², Large (>1 m²)

Expand to show TLE details & history
Last TLE update: 4 hours ago

TLE from 4 hours ago
0 CHEOPS
1 44874U 19092B   26125.51338991  .00000339  00000-0  76982-4 0  9994
2 44874  98.1514 314.3772 0009522 228.8218 131.2163 14.61935537339661
Epoch: 2026-05-05T12:19Z
TLE epoch observation values (Epoch: 2026-05-05T12:19:16.888Z)
Latitude
0.00002°
Longitude
-93.83032°
Altitude
694.358 km
Speed
7.507 km/s
True Right ascension
20h 57m 30s
True Declination
0° 00' 00"
Sunlit
Object was in daylight at epoch
Visualization orbit readout
Latitude
Unknown
Longitude
Unknown
Altitude
Unknown
Speed
Unknown
Apparent Right ascension
Unknown
Apparent Declination
Unknown
Sunlit
N/A
Visualization observer readout
Local Sidereal Time
00:27:50
Azimuth
Unknown
Elevation
Unknown
Doppler factor
Unknown
Orbital elements
Apogee altitude
690.732 km
Perigee altitude
677.283 km
Semi-major axis
7,062.145 km
Eccentricity
0.00095
Inclination
98.1514°
RAAN
314.3772°
Arg. of periapsis
228.8218°
True anomaly
131.29831°
Mean anomaly
131.2163°
Eccentric anomaly
131.25731°
Mean motion
3.65711 °/min
Orbital period
98.44 mins
BSTAR
0.000076982
Loading maneuver chart data...
Computing Atmospheric mass density...
Loading historical data...
Loading historical data...
Loading historical data...
Loading historical data...
Loading historical data...
Loading historical data...
Loading historical data...

Documentation

Showing up to 5 results
|